Location: Poughquag
(41.6090°N, 73.6820°W)
Time: 09:28:16
(UTC-05:00)

Vanguard 1 - Pass Details

Date: 05 December 2023
Orbit: 653 x 3826 km, 34.3° (Epoch: 25 February)

Event Time Altitude Azimuth Distance (km) Brightness Sun altitude
Rises 23:15:31 0° 282° (WNW) 7,453 14.7 -69.8°
Reaches altitude 10° 23:20:33 10° 277° (W) 6,669 14.3 -70.1°
Enters shadow 23:27:14 24° 267° (W) 5,726 13.8 -70.5°
Maximum altitude 23:41:27 45° 215° (SW) 4,537 - -70.8°
Drops below altitude 10° 23:59:38 10° 150° (SSE) 5,831 - -70.6°
Sets 00:03:43 0° 143° (SE) 6,489 - -70.5°
